Home   Weather   Chorzów   Past weeks

Flag for Poland Past Weather in Chorzów, Poland — Yesterday and Last 2 Weeks

Now
46 °F

Clear.


Feels Like: 40 °F
Forecast: 38 / 41 °F
Wind: 16 mph from Southwest

Location: Katowice Airport

Current Time: Dec 10, 2016 at 3:50:08 pm

Latest Report: Dec 10, 2016 at 3:30 pm


Visibility: 4 mi

Pressure: 30.07 "Hg

Humidity: 82%

Dew Point: 41 °F

Location of ChorzówLocation

Past Weather in Chorzów — Graph

°F

Chorzów Temperature Yesterday

Maximum temperature yesterday: 43 °F (at 10:30 pm)
Minimum temperature yesterday: 32 °F (at 6:30 am)
Average temperature yesterday: 37 °F

High & Low Weather Summary for the Past Weeks

 TemperatureHumidityPressure
High46 °F (Dec 10, 11:30 am)100% (Nov 25, 6:30 pm)30.63 "Hg (Nov 25, 6:30 pm)
Low18 °F (Dec 5, 1:30 am)41% (Dec 5, 2:00 pm)29.45 "Hg (Dec 2, 3:30 am)
Average32 °F86%30.16 "Hg
* Reported Nov 25 2:00 pm — Dec 10 2:30 pm, Chorzów, Weather by CustomWeather, © 2016

Note: Actual official high and low records may vary slightly from our data, if they occured in-between our weather recording intervals... More about our weather records

Advertising

Chorzów Weather History for the Previous 24 Hours

Scroll right to see more
 ConditionsComfort  
Time TempWeatherWind HumidityBarometerVisibility
2:30 pm
Sat, Dec 10
46 °FPassing clouds.16 mph82%30.07 "Hg6 mi
2:00 pm46 °FSunny.13 mph82%30.07 "Hg10 mi
1:30 pm46 °FSunny.14 mph82%30.07 "Hg10 mi
1:00 pm46 °FPassing clouds.17 mph82%30.07 "HgN/A
12:30 pm46 °FSunny.17 mph82%30.09 "Hg10 mi
12:00 pm46 °FMostly cloudy.15 mph82%30.09 "HgN/A
11:30 am46 °FMostly cloudy.16 mph82%30.09 "HgN/A
11:00 am45 °FOvercast.16 mph87%30.09 "Hg6 mi
10:30 am45 °FPartly sunny.15 mph87%30.09 "Hg4 mi
10:00 am43 °FPartly sunny.15 mph87%30.09 "Hg4 mi
9:30 am43 °FPartly sunny.17 mph87%30.09 "Hg4 mi
9:00 am43 °FPartly sunny.17 mph87%30.09 "Hg4 mi
8:30 am41 °FFog.15 mph93%30.09 "Hg3 mi
8:00 am41 °FFog.16 mph93%30.09 "Hg3 mi
7:30 am41 °FFog.13 mph93%30.09 "Hg3 mi
7:00 am41 °FDrizzle. Fog.12 mph93%30.09 "Hg2 mi
6:30 am39 °FDrizzle. Fog.12 mph100%30.12 "Hg1 mi
6:00 am39 °FDrizzle. Fog.12 mph100%30.12 "Hg2 mi
5:30 am39 °FDrizzle. Fog.10 mph93%30.15 "Hg2 mi
5:00 am39 °FOvercast.10 mph93%30.15 "Hg4 mi
4:30 am39 °FFog.10 mph93%30.15 "Hg3 mi
4:00 am39 °FFog.10 mph93%30.15 "Hg3 mi
3:30 am39 °FFog.9 mph93%30.18 "Hg3 mi
3:00 am41 °FFog.13 mph93%30.18 "Hg3 mi
2:30 am41 °FMostly cloudy.13 mph93%30.18 "Hg5 mi
2:00 am41 °FOvercast.13 mph93%30.18 "Hg6 mi
1:30 am41 °FMostly cloudy.14 mph93%30.18 "Hg4 mi
1:00 am41 °FMostly cloudy.12 mph93%30.21 "Hg4 mi
12:30 am43 °FMostly cloudy.13 mph93%30.21 "Hg4 mi
12:00 am43 °FMostly cloudy.13 mph93%30.21 "Hg4 mi
11:30 pm
Fri, Dec 9
43 °FMostly cloudy.15 mph93%30.21 "Hg4 mi
11:00 pm43 °FFog.15 mph93%30.24 "Hg3 mi
10:30 pm43 °FFog.16 mph93%30.21 "Hg3 mi
10:00 pm41 °FFog.15 mph100%30.21 "Hg2 mi
9:30 pm41 °FFog.14 mph100%30.21 "Hg2 mi
9:00 pm41 °FDrizzle. Fog.14 mph100%30.24 "Hg2 mi
8:30 pm41 °FDrizzle. Fog.14 mph93%30.21 "Hg1 mi
8:00 pm41 °FDrizzle. Fog.14 mph93%30.21 "Hg1 mi
7:30 pm41 °FDrizzle. Fog.15 mph93%30.21 "Hg2 mi
7:00 pm41 °FDrizzle. Fog.16 mph93%30.21 "Hg3 mi
6:30 pm41 °FLow clouds.15 mph93%30.18 "Hg5 mi
6:00 pm41 °FMostly cloudy.16 mph87%30.18 "Hg4 mi
5:30 pm39 °FLow clouds.14 mph93%30.18 "Hg4 mi
5:00 pm39 °FFog.14 mph93%30.18 "Hg3 mi
4:30 pm39 °FDrizzle. Fog.14 mph87%30.18 "Hg3 mi
4:00 pm39 °FMostly cloudy.12 mph87%30.18 "Hg4 mi
3:30 pm39 °FOvercast.12 mph81%30.18 "Hg4 mi
3:00 pm37 °FOvercast.13 mph87%30.18 "Hg4 mi
Weather by CustomWeather, © 2016

See weather overviewHow to use our weather pages